Current weather by "City, St" or "zip code"  
 

Current Conditions: Eveleth-Virginia Municipal Airport, MN

Fair


51.0 F

Last Updated on Sep 18 2020, 10:55 am CDT
Humidity: 46%
Wind Speed: SW 6.9 mph
Barometer 30.44 in
Dewpoint: 30.7 F
Visibility: 10.00 mi
Precip: --
Heat Index: NA
Wind Chill: 48 F
Current conditions at:

Eveleth-Virginia Municipal Airport, MN (KEVM)

Lat: 47.4274 Lon: 92.49717

Local Radar Image active severe weather and emergency alerts image image weather storm and storm spotter reports image weather observation monitoring service image
Local
Radar
Active
Alerts
Storm Reports Obs
Monitoring

Sign-up For Email & Text Message Weather Alert Notification Services



Advertise Here

Observation History for Eveleth-Virginia Municipal Airport, MN


Time Wind
(mph)
Vis
(mi)
Weather Precip (in) Temperature (F) Relative
Humidity
Wind
Chill
(F)
Heat
Index
(F)
Pressure
Air Dwpt altimeter
(in)
sea level
(mb)
Rmks
10:55 am CDT SW 6.9 10.00 Fair -- 51.0 30.7 46% 48 NA 30.44 M
9:55 am CDT N 0.0 10.00 Fair -- 41.0 37.8 87% NA NA 30.44 M
8:55 am CDT N 0.0 10.00 Fair -- 35.0 34.3 99% NA NA 30.44 M
7:55 am CDT N 0.0 0.50 Overcast -- 26.0 25.2 98% NA NA 30.44 M
6:55 am CDT N 0.0 0.50 Overcast -- 23.0 22.1 96% NA NA 30.44 M
5:55 am CDT N 0.0 0.15 NULL -- 25.0 24.1 97% NA NA 30.42 M
4:55 am CDT N 0.0 10.00 Fair -- 24.0 22.6 95% NA NA 30.42 M
3:55 am CDT N 0.0 10.00 Fair -- 26.0 24.4 96% NA NA 30.40 M
2:55 am CDT N 0.0 10.00 Fair -- 26.0 25.0 96% NA NA 30.39 M
1:55 am CDT N 0.0 10.00 Fair -- 27.0 26.4 96% NA NA 30.38 M
12:55 am CDT N 0.0 10.00 Fair -- 27.0 26.6 97% NA NA 30.38 M
11:55 pm CDT N 0.0 10.00 Fair -- 30.0 28.8 95% NA NA 30.37 M
10:55 pm CDT N 0.0 10.00 Fair -- 31.0 29.1 93% NA NA 30.37 M
9:55 pm CDT N 0.0 10.00 Fair -- 32.0 30.0 92% NA NA 30.35 M
8:55 pm CDT N 3.5 10.00 Fair -- 38.0 30.4 75% NA NA 30.34 M
7:55 pm CDT N 4.6 10.00 Mostly Cloudy -- 46.0 28.8 52% 44 NA 30.32 M
6:55 pm CDT N 3.5 10.00 Overcast -- 49.0 27.7 44% NA NA 30.30 M
5:55 pm CDT N 4.6 10.00 Fair -- 51.0 25.0 37% 50 NA 30.30 M
4:55 pm CDT NW 5.8 10.00 Fair -- 52.0 23.5 33% 50 NA 30.29 M
3:55 pm CDT NW 8.1 10.00 Partly Cloudy -- 54.0 23.9 31% 52 NA 30.29 M
2:55 pm CDT N 6.9 10.00 Fair -- 53.0 22.3 30% 51 NA 30.30 M
1:55 pm CDT NW 8.1 10.00 Fair -- 52.0 23.0 32% 49 NA 30.31 M
12:55 pm CDT N 4.6 10.00 Fair -- 50.0 21.0 32% 48 NA 30.32 M
11:55 am CDT W 3.5 10.00 Fair -- 49.0 22.6 36% NA NA 30.33 M

Regional Weather Observation


Chisholm-Hibbing Airport, MN (KHIB)

Fair
50.0 F

Eveleth-Virginia Municipal Airport, MN (KEVM)

Fair
51.0 F

Orr Regional Airport, MN (KORB)

Fair
52.0 F

Bigfork Municipal Airport, MN (KFOZ)

Fair
54.0 F

Grand Rapids, Grand Rapids/Itasca County Airport-Gordon Newstrom Field, MN (KGPZ)

Fair
51.0 F

Ely, Ely Municipal Airport, MN (KELO)

Fair
50.0 F